Home > Weather > Whitehorse > Past weeks

Flag for Canada Past Weather in Whitehorse, Yukon, Canada — Yesterday and Last 2 Weeks

Now
46 °F

Sprinkles. Overcast.


Feels Like: 42 °F
Forecast: 45 / 51 °F
Wind: 8 mph from South

Location: Whitehorse

Current Time: May 25, 2016 at 4:08:11 AM

Latest Report: May 25, 2016 at 3:00 AM


Visibility: 10 mi

Pressure: 29.93 "Hg (27.69 "Hg at 640m altitude)

Humidity: 87%

Dew Point: 43 °F

Location of WhitehorseLocation

Past Weather in Whitehorse — Graph

°F

Whitehorse Temperature Yesterday

Maximum temperature yesterday: 66 °F (at 5:00 PM)
Minimum temperature yesterday: 48 °F (at 3:00 AM)
Average temperature yesterday: 55 °F

High & Low Weather Summary for the Past Weeks

 TemperatureHumidityPressure
High75 °F (May 13, 5:00 PM)100% (May 10, 9:00 AM)30.56 "Hg (May 10, 9:00 AM)
Low32 °F (May 11, 5:00 AM)13% (May 15, 4:00 PM)29.64 "Hg (May 21, 7:00 PM)
Average54 °F49%30.05 "Hg
* Reported May 10 2:00 AM — May 25 2:00 AM, Whitehorse, Weather by CustomWeather, © 2016

Note: Actual official high and low records may vary slightly from our data, if they occured in-between our weather recording intervals... More about our weather records

Advertising

Whitehorse Weather History for the Previous 24 Hours

Scroll right to see more
 ConditionsComfort  
Time TempWeatherWind HumidityBarometerVisibility
2:00 AM
Wed, May 25
48 °FSprinkles. Mostly cloudy.8 mph87%29.93 "Hg15 mi
1:00 AM50 °FSprinkles. Mostly cloudy.7 mph88%29.92 "Hg15 mi
12:00 AM52 °FScattered showers. Mostly cloudy.8 mph82%29.92 "Hg15 mi
11:00 PM
Tue, May 24
52 °FScattered showers. Broken clouds.9 mph77%29.92 "Hg30 mi
10:00 PM54 °FBroken clouds.9 mph72%29.91 "Hg30 mi
9:00 PM55 °FScattered showers. Partly sunny.6 mph67%29.91 "Hg20 mi
8:00 PM57 °FScattered showers. Partly sunny.3 mph51%29.89 "Hg40 mi
7:00 PM57 °FBroken clouds.15 mph55%29.87 "Hg40 mi
6:00 PM63 °FBroken clouds.13 mph42%29.86 "Hg40 mi
5:00 PM66 °FBroken clouds.13 mph37%29.85 "Hg40 mi
4:00 PM64 °FScattered clouds.7 mph46%29.87 "Hg40 mi
3:00 PM63 °FScattered clouds.5 mph45%29.90 "Hg40 mi
2:00 PM61 °FScattered clouds.5 mph48%29.91 "Hg60 mi
1:00 PM59 °FScattered clouds.9 mph55%29.92 "Hg40 mi
12:00 PM57 °FScattered clouds.7 mph59%29.93 "Hg40 mi
11:00 AM55 °FBroken clouds.8 mph59%29.94 "Hg40 mi
10:00 AM54 °FBroken clouds.8 mph72%29.94 "Hg40 mi
9:00 AM50 °FBroken clouds.6 mph82%29.95 "Hg30 mi
8:00 AM48 °FPartly sunny.6 mph87%29.95 "Hg30 mi
7:00 AM48 °FPartly sunny.7 mph87%29.94 "Hg30 mi
6:00 AM48 °FBroken clouds.7 mph87%29.93 "Hg30 mi
5:00 AM48 °FPartly cloudy.3 mph87%29.91 "Hg40 mi
4:00 AM50 °FPassing clouds.2 mph88%29.90 "Hg15 mi
Weather by CustomWeather, © 2016

See weather overviewHow to use our weather pages